Year,Month,Day,Hour,Minute,Value (Times are PST for temperature in C)
2008,05,18,00,00,20.30
2008,05,18,00,01,20.20
2008,05,18,00,02,20.20
2008,05,18,00,03,20.20
2008,05,18,00,04,20.30
2008,05,18,00,05,20.30
2008,05,18,00,06,20.40
2008,05,18,00,07,20.40
2008,05,18,00,08,20.40
2008,05,18,00,09,20.50
2008,05,18,00,10,20.50
2008,05,18,00,11,20.50
2008,05,18,00,12,20.40
2008,05,18,00,13,20.40
2008,05,18,00,14,20.40
2008,05,18,00,15,20.40
2008,05,18,00,16,20.50
2008,05,18,00,17,20.50
2008,05,18,00,18,20.50
2008,05,18,00,19,20.50
2008,05,18,00,20,20.50
2008,05,18,00,21,20.50
2008,05,18,00,22,20.50
2008,05,18,00,23,20.50
2008,05,18,00,24,20.50
2008,05,18,00,25,20.40
2008,05,18,00,26,20.50
2008,05,18,00,27,20.50
2008,05,18,00,28,20.50
2008,05,18,00,29,20.50
2008,05,18,00,30,20.50
2008,05,18,00,31,20.50
2008,05,18,00,32,20.60
2008,05,18,00,33,20.60
2008,05,18,00,34,20.60
2008,05,18,00,35,20.60
2008,05,18,00,36,20.60
2008,05,18,00,37,20.60
2008,05,18,00,38,20.60
2008,05,18,00,39,20.60
2008,05,18,00,40,20.50
2008,05,18,00,41,20.50
2008,05,18,00,42,20.50
2008,05,18,00,43,20.50
2008,05,18,00,44,20.50
2008,05,18,00,45,20.40
2008,05,18,00,46,20.40
2008,05,18,00,47,20.40
2008,05,18,00,48,20.40
2008,05,18,00,49,20.40
2008,05,18,00,50,20.30
2008,05,18,00,51,20.30
2008,05,18,00,52,20.30
2008,05,18,00,53,20.30
2008,05,18,00,54,20.30
2008,05,18,00,55,20.30
2008,05,18,00,56,20.20
2008,05,18,00,57,20.20
2008,05,18,00,58,20.20
2008,05,18,00,59,20.20
2008,05,18,01,00,20.20
2008,05,18,01,01,20.20
2008,05,18,01,02,20.20
2008,05,18,01,03,20.20
2008,05,18,01,04,20.20
2008,05,18,01,05,20.20
2008,05,18,01,06,20.10
2008,05,18,01,07,20.10
2008,05,18,01,08,20.00
2008,05,18,01,09,19.90
2008,05,18,01,10,19.90
2008,05,18,01,11,19.90
2008,05,18,01,12,19.80
2008,05,18,01,13,19.60
2008,05,18,01,14,19.40
2008,05,18,01,15,19.20
2008,05,18,01,16,19.00
2008,05,18,01,17,18.80
2008,05,18,01,18,18.60
2008,05,18,01,19,18.50
2008,05,18,01,20,18.30
2008,05,18,01,21,18.10
2008,05,18,01,22,17.90
2008,05,18,01,23,17.80
2008,05,18,01,24,17.60
2008,05,18,01,25,17.50
2008,05,18,01,26,17.40
2008,05,18,01,27,17.30
2008,05,18,01,28,17.20
2008,05,18,01,29,17.10
2008,05,18,01,30,16.90
2008,05,18,01,31,16.80
2008,05,18,01,32,16.70
2008,05,18,01,33,16.60
2008,05,18,01,34,16.40
2008,05,18,01,35,16.30
2008,05,18,01,36,16.10
2008,05,18,01,37,16.00
2008,05,18,01,38,15.90
2008,05,18,01,39,15.80
2008,05,18,01,40,15.70
2008,05,18,01,41,15.60
2008,05,18,01,42,15.50
2008,05,18,01,43,15.40
2008,05,18,01,44,15.30
2008,05,18,01,45,15.30
2008,05,18,01,46,15.30
2008,05,18,01,47,15.30
2008,05,18,01,48,15.20
2008,05,18,01,49,15.20
2008,05,18,01,50,15.10
2008,05,18,01,51,15.10
2008,05,18,01,52,15.00
2008,05,18,01,53,15.00
2008,05,18,01,54,14.90
2008,05,18,01,55,14.90
2008,05,18,01,56,14.90
2008,05,18,01,57,14.80
2008,05,18,01,58,14.80
2008,05,18,01,59,14.80
2008,05,18,02,00,14.80
2008,05,18,02,01,14.80
2008,05,18,02,02,14.80
2008,05,18,02,03,14.80
2008,05,18,02,04,14.80
2008,05,18,02,05,14.80
2008,05,18,02,06,14.80
2008,05,18,02,07,14.80
2008,05,18,02,08,14.80
2008,05,18,02,09,14.80
2008,05,18,02,10,14.80
2008,05,18,02,11,14.80
2008,05,18,02,12,14.70
2008,05,18,02,13,14.70
2008,05,18,02,14,14.70
2008,05,18,02,15,14.60
2008,05,18,02,16,14.60
2008,05,18,02,17,14.60
2008,05,18,02,18,14.60
2008,05,18,02,19,14.60
2008,05,18,02,20,14.50
2008,05,18,02,21,14.50
2008,05,18,02,22,14.50
2008,05,18,02,23,14.40
2008,05,18,02,24,14.40
2008,05,18,02,25,14.40
2008,05,18,02,26,14.50
2008,05,18,02,27,14.50
2008,05,18,02,28,14.50
2008,05,18,02,29,14.50
2008,05,18,02,30,14.60
2008,05,18,02,31,14.60
2008,05,18,02,32,14.60
2008,05,18,02,33,14.60
2008,05,18,02,34,14.60
2008,05,18,02,35,14.60
2008,05,18,02,36,14.60
2008,05,18,02,37,14.60
2008,05,18,02,38,14.60
2008,05,18,02,39,14.60
2008,05,18,02,40,14.60
2008,05,18,02,41,14.60
2008,05,18,02,42,14.60
2008,05,18,02,43,14.60
2008,05,18,02,44,14.60
2008,05,18,02,45,14.60
2008,05,18,02,46,14.60
2008,05,18,02,47,14.60
2008,05,18,02,48,14.60
2008,05,18,02,49,14.60
2008,05,18,02,50,14.60
2008,05,18,02,51,14.50
2008,05,18,02,52,14.50
2008,05,18,02,53,14.50
2008,05,18,02,54,14.40
2008,05,18,02,55,14.40
2008,05,18,02,56,14.40
2008,05,18,02,57,14.30
2008,05,18,02,58,14.20
2008,05,18,02,59,14.20
2008,05,18,03,00,14.20
2008,05,18,03,01,14.20
2008,05,18,03,02,14.10
2008,05,18,03,03,14.10
2008,05,18,03,04,14.10
2008,05,18,03,05,14.00
2008,05,18,03,06,14.00
2008,05,18,03,07,14.00
2008,05,18,03,08,14.00
2008,05,18,03,09,14.00
2008,05,18,03,10,14.00
2008,05,18,03,11,14.00
2008,05,18,03,12,14.00
2008,05,18,03,13,14.00
2008,05,18,03,14,14.00
2008,05,18,03,15,14.00
2008,05,18,03,16,14.00
2008,05,18,03,17,14.00
2008,05,18,03,18,13.90
2008,05,18,03,19,13.90
2008,05,18,03,20,13.90
2008,05,18,03,21,14.00
2008,05,18,03,22,14.00
2008,05,18,03,23,14.10
2008,05,18,03,24,14.10
2008,05,18,03,25,14.10
2008,05,18,03,26,14.20
2008,05,18,03,27,14.20
2008,05,18,03,28,14.20
2008,05,18,03,29,14.20
2008,05,18,03,30,14.20
2008,05,18,03,31,14.20
2008,05,18,03,32,14.20
2008,05,18,03,33,14.20
2008,05,18,03,34,14.20
2008,05,18,03,35,14.20
2008,05,18,03,36,14.20
2008,05,18,03,37,14.20
2008,05,18,03,38,14.10
2008,05,18,03,39,14.10
2008,05,18,03,40,14.10
2008,05,18,03,41,14.10
2008,05,18,03,42,14.10
2008,05,18,03,43,14.20
2008,05,18,03,44,14.20
2008,05,18,03,45,14.20
2008,05,18,03,46,14.20
2008,05,18,03,47,14.30
2008,05,18,03,48,14.30
2008,05,18,03,49,14.40
2008,05,18,03,50,14.50
2008,05,18,03,51,14.60
2008,05,18,03,52,14.60
2008,05,18,03,53,14.70
2008,05,18,03,54,14.80
2008,05,18,03,55,14.80
2008,05,18,03,56,14.80
2008,05,18,03,57,14.80
2008,05,18,03,58,14.80
2008,05,18,03,59,14.80
2008,05,18,04,00,14.80
2008,05,18,04,01,14.80
2008,05,18,04,02,14.80
2008,05,18,04,03,14.80
2008,05,18,04,04,14.70
2008,05,18,04,05,14.70
2008,05,18,04,06,14.60
2008,05,18,04,07,14.60
2008,05,18,04,08,14.60
2008,05,18,04,09,14.50
2008,05,18,04,10,14.50
2008,05,18,04,11,14.40
2008,05,18,04,12,14.40
2008,05,18,04,13,14.30
2008,05,18,04,14,14.20
2008,05,18,04,15,14.20
2008,05,18,04,16,14.20
2008,05,18,04,17,14.10
2008,05,18,04,18,14.00
2008,05,18,04,19,14.00
2008,05,18,04,20,13.90
2008,05,18,04,21,13.90
2008,05,18,04,22,13.80
2008,05,18,04,23,13.80
2008,05,18,04,24,13.70
2008,05,18,04,25,13.70
2008,05,18,04,26,13.70
2008,05,18,04,27,13.70
2008,05,18,04,28,13.70
2008,05,18,04,29,13.60
2008,05,18,04,30,13.60
2008,05,18,04,31,13.60
2008,05,18,04,32,13.50
2008,05,18,04,33,13.50
2008,05,18,04,34,13.50
2008,05,18,04,35,13.40
2008,05,18,04,36,13.40
2008,05,18,04,37,13.40
2008,05,18,04,38,13.40
2008,05,18,04,39,13.30
2008,05,18,04,40,13.30
2008,05,18,04,41,13.30
2008,05,18,04,42,13.30
2008,05,18,04,43,13.30
2008,05,18,04,44,13.30
2008,05,18,04,45,13.30
2008,05,18,04,46,13.30
2008,05,18,04,47,13.30
2008,05,18,04,48,13.30
2008,05,18,04,49,13.30
2008,05,18,04,50,13.30
2008,05,18,04,51,13.30
2008,05,18,04,52,13.30
2008,05,18,04,53,13.30
2008,05,18,04,54,13.30
2008,05,18,04,55,13.30
2008,05,18,04,56,13.30
2008,05,18,04,57,13.30
2008,05,18,04,58,13.30
2008,05,18,04,59,13.30
2008,05,18,05,00,13.30
2008,05,18,05,01,13.30
2008,05,18,05,02,13.30
2008,05,18,05,03,13.30
2008,05,18,05,04,13.30
2008,05,18,05,05,13.30
2008,05,18,05,06,13.30
2008,05,18,05,07,13.30
2008,05,18,05,08,13.30
2008,05,18,05,09,13.30
2008,05,18,05,10,13.20
2008,05,18,05,11,13.20
2008,05,18,05,12,13.20
2008,05,18,05,13,13.20
2008,05,18,05,14,13.10
2008,05,18,05,15,13.10
2008,05,18,05,16,13.10
2008,05,18,05,17,13.10
2008,05,18,05,18,13.10
2008,05,18,05,19,13.00
2008,05,18,05,20,13.00
2008,05,18,05,21,13.00
2008,05,18,05,22,13.00
2008,05,18,05,23,13.00
2008,05,18,05,24,13.00
2008,05,18,05,25,12.90
2008,05,18,05,26,12.90
2008,05,18,05,27,12.90
2008,05,18,05,28,12.90
2008,05,18,05,29,12.90
2008,05,18,05,30,12.90
2008,05,18,05,31,12.90
2008,05,18,05,32,12.90
2008,05,18,05,33,12.90
2008,05,18,05,34,12.90
2008,05,18,05,35,12.90
2008,05,18,05,36,13.00
2008,05,18,05,37,13.00
2008,05,18,05,38,13.00
2008,05,18,05,39,13.00
2008,05,18,05,40,13.00
2008,05,18,05,41,13.10
2008,05,18,05,42,13.10
2008,05,18,05,43,13.00
2008,05,18,05,44,13.00
2008,05,18,05,45,13.00
2008,05,18,05,46,13.00
2008,05,18,05,47,13.00
2008,05,18,05,48,12.90
2008,05,18,05,49,12.90
2008,05,18,05,50,12.90
2008,05,18,05,51,12.90
2008,05,18,05,52,12.80
2008,05,18,05,53,12.80
2008,05,18,05,54,12.80
2008,05,18,05,55,12.80
2008,05,18,05,56,12.80
2008,05,18,05,57,12.80
2008,05,18,05,58,12.80
2008,05,18,05,59,12.80
2008,05,18,06,00,12.80
2008,05,18,06,01,12.80
2008,05,18,06,02,12.80
2008,05,18,06,03,12.70
2008,05,18,06,04,12.70
2008,05,18,06,05,12.70
2008,05,18,06,06,12.70
2008,05,18,06,07,12.70
2008,05,18,06,08,12.70
2008,05,18,06,09,12.70
2008,05,18,06,10,12.70
2008,05,18,06,11,12.70
2008,05,18,06,12,12.70
2008,05,18,06,13,12.70
2008,05,18,06,14,12.80
2008,05,18,06,15,12.80
2008,05,18,06,16,12.80
2008,05,18,06,17,12.80
2008,05,18,06,18,12.80
2008,05,18,06,19,12.90
2008,05,18,06,20,12.90
2008,05,18,06,21,13.00
2008,05,18,06,22,13.00
2008,05,18,06,23,13.10
2008,05,18,06,24,13.10
2008,05,18,06,25,13.20
2008,05,18,06,26,13.30
2008,05,18,06,27,13.30
2008,05,18,06,28,13.40
2008,05,18,06,29,13.40
2008,05,18,06,30,13.50
2008,05,18,06,31,13.50
2008,05,18,06,32,13.60
2008,05,18,06,33,13.60
2008,05,18,06,34,13.70
2008,05,18,06,35,13.80
2008,05,18,06,36,13.90
2008,05,18,06,37,13.90
2008,05,18,06,38,14.00
2008,05,18,06,39,14.10
2008,05,18,06,40,14.20
2008,05,18,06,41,14.20
2008,05,18,06,42,14.10
2008,05,18,06,43,14.10
2008,05,18,06,44,14.20
2008,05,18,06,45,14.20
2008,05,18,06,46,14.20
2008,05,18,06,47,14.20
2008,05,18,06,48,14.30
2008,05,18,06,49,14.40
2008,05,18,06,50,14.50
2008,05,18,06,51,14.50
2008,05,18,06,52,14.60
2008,05,18,06,53,14.70
2008,05,18,06,54,14.70
2008,05,18,06,55,14.80
2008,05,18,06,56,14.80
2008,05,18,06,57,14.80
2008,05,18,06,58,14.90
2008,05,18,06,59,15.00
2008,05,18,07,00,15.10
2008,05,18,07,01,15.20
2008,05,18,07,02,15.30
2008,05,18,07,03,15.30
2008,05,18,07,04,15.40
2008,05,18,07,05,15.40
2008,05,18,07,06,15.50
2008,05,18,07,07,15.50
2008,05,18,07,08,15.50
2008,05,18,07,09,15.60
2008,05,18,07,10,15.60
2008,05,18,07,11,15.60
2008,05,18,07,12,15.70
2008,05,18,07,13,15.80
2008,05,18,07,14,15.90
2008,05,18,07,15,16.00
2008,05,18,07,16,16.10
2008,05,18,07,17,16.10
2008,05,18,07,18,16.20
2008,05,18,07,19,16.20
2008,05,18,07,20,16.30
2008,05,18,07,21,16.30
2008,05,18,07,22,16.40
2008,05,18,07,23,16.40
2008,05,18,07,24,16.40
2008,05,18,07,25,16.60
2008,05,18,07,26,16.60
2008,05,18,07,27,16.70
2008,05,18,07,28,16.80
2008,05,18,07,29,16.90
2008,05,18,07,30,16.90
2008,05,18,07,31,16.90
2008,05,18,07,32,16.90
2008,05,18,07,33,16.90
2008,05,18,07,34,16.80
2008,05,18,07,35,16.70
2008,05,18,07,36,16.60
2008,05,18,07,37,16.40
2008,05,18,07,38,16.40
2008,05,18,07,39,16.30
2008,05,18,07,40,16.30
2008,05,18,07,41,16.30
2008,05,18,07,42,16.30
2008,05,18,07,43,16.40
2008,05,18,07,44,16.40
2008,05,18,07,45,16.40
2008,05,18,07,46,16.40
2008,05,18,07,47,16.30
2008,05,18,07,48,16.30
2008,05,18,07,49,16.30
2008,05,18,07,50,16.30
2008,05,18,07,51,16.40
2008,05,18,07,52,16.40
2008,05,18,07,53,16.50
2008,05,18,07,54,16.60
2008,05,18,07,55,16.70
2008,05,18,07,56,16.70
2008,05,18,07,57,16.80
2008,05,18,07,58,16.80
2008,05,18,07,59,16.90
2008,05,18,08,00,16.90
2008,05,18,08,01,17.00
2008,05,18,08,02,17.20
2008,05,18,08,03,17.30
2008,05,18,08,04,17.40
2008,05,18,08,05,17.50
2008,05,18,08,06,17.60
2008,05,18,08,07,17.50
2008,05,18,08,08,17.60
2008,05,18,08,09,17.70
2008,05,18,08,10,17.80
2008,05,18,08,11,17.80
2008,05,18,08,12,17.90
2008,05,18,08,13,17.90
2008,05,18,08,14,17.90
2008,05,18,08,15,17.90
2008,05,18,08,16,17.90
2008,05,18,08,17,18.10
2008,05,18,08,18,18.10
2008,05,18,08,19,17.90
2008,05,18,08,20,17.90
2008,05,18,08,21,17.90
2008,05,18,08,22,17.90
2008,05,18,08,23,17.90
2008,05,18,08,24,17.90
2008,05,18,08,25,17.90
2008,05,18,08,26,17.90
2008,05,18,08,27,17.90
2008,05,18,08,28,18.00
2008,05,18,08,29,18.10
2008,05,18,08,30,18.00
2008,05,18,08,31,17.90
2008,05,18,08,32,17.90
2008,05,18,08,33,17.90
2008,05,18,08,34,17.90
2008,05,18,08,35,17.90
2008,05,18,08,36,17.90
2008,05,18,08,37,18.10
2008,05,18,08,38,18.20
2008,05,18,08,39,18.20
2008,05,18,08,40,18.30
2008,05,18,08,41,18.30
2008,05,18,08,42,18.30
2008,05,18,08,43,18.30
2008,05,18,08,44,18.30
2008,05,18,08,45,18.30
2008,05,18,08,46,18.20
2008,05,18,08,47,18.10
2008,05,18,08,48,18.00
2008,05,18,08,49,17.90
2008,05,18,08,50,17.90
2008,05,18,08,51,17.90
2008,05,18,08,52,17.80
2008,05,18,08,53,17.70
2008,05,18,08,54,17.70
2008,05,18,08,55,17.60
2008,05,18,08,56,17.60
2008,05,18,08,57,17.50
2008,05,18,08,58,17.50
2008,05,18,08,59,17.50
2008,05,18,09,00,17.50
2008,05,18,09,01,17.50
2008,05,18,09,02,17.40
2008,05,18,09,03,17.30
2008,05,18,09,04,17.30
2008,05,18,09,05,17.30
2008,05,18,09,06,17.30
2008,05,18,09,07,17.40
2008,05,18,09,08,17.50
2008,05,18,09,09,17.60
2008,05,18,09,10,17.70
2008,05,18,09,11,17.70
2008,05,18,09,12,17.80
2008,05,18,09,13,17.80
2008,05,18,09,14,17.80
2008,05,18,09,15,17.90
2008,05,18,09,16,17.90
2008,05,18,09,17,17.90
2008,05,18,09,18,17.90
2008,05,18,09,19,17.80
2008,05,18,09,20,17.80
2008,05,18,09,21,17.70
2008,05,18,09,22,17.70
2008,05,18,09,23,17.60
2008,05,18,09,24,17.60
2008,05,18,09,25,17.50
2008,05,18,09,26,17.50
2008,05,18,09,27,17.60
2008,05,18,09,28,17.70
2008,05,18,09,29,17.80
2008,05,18,09,30,17.90
2008,05,18,09,31,17.90
2008,05,18,09,32,18.00
2008,05,18,09,33,18.10
2008,05,18,09,34,18.20
2008,05,18,09,35,18.20
2008,05,18,09,36,18.20
2008,05,18,09,37,18.20
2008,05,18,09,38,18.20
2008,05,18,09,39,18.40
2008,05,18,09,40,18.50
2008,05,18,09,41,18.50
2008,05,18,09,42,18.60
2008,05,18,09,43,18.50
2008,05,18,09,44,18.50
2008,05,18,09,45,18.40
2008,05,18,09,46,18.40
2008,05,18,09,47,18.40
2008,05,18,09,48,18.40
2008,05,18,09,49,18.40
2008,05,18,09,50,18.40
2008,05,18,09,51,18.50
2008,05,18,09,52,18.60
2008,05,18,09,53,18.70
2008,05,18,09,54,18.60
2008,05,18,09,55,18.50
2008,05,18,09,56,18.50
2008,05,18,09,57,18.40
2008,05,18,09,58,18.30
2008,05,18,09,59,18.40
2008,05,18,10,00,18.50
2008,05,18,10,01,18.50
2008,05,18,10,02,18.60
2008,05,18,10,03,18.50
2008,05,18,10,04,18.50
2008,05,18,10,05,18.40
2008,05,18,10,06,18.30
2008,05,18,10,07,18.20
2008,05,18,10,08,18.10
2008,05,18,10,09,18.10
2008,05,18,10,10,18.00
2008,05,18,10,11,17.90
2008,05,18,10,12,17.90
2008,05,18,10,13,17.90
2008,05,18,10,14,17.90
2008,05,18,10,15,17.90
2008,05,18,10,16,17.90
2008,05,18,10,17,17.90
2008,05,18,10,18,17.80
2008,05,18,10,19,17.70
2008,05,18,10,20,17.50
2008,05,18,10,21,17.50
2008,05,18,10,22,17.50
2008,05,18,10,23,17.50
2008,05,18,10,24,17.60
2008,05,18,10,25,17.60
2008,05,18,10,26,17.60
2008,05,18,10,27,17.70
2008,05,18,10,28,17.70
2008,05,18,10,29,17.80
2008,05,18,10,30,17.90
2008,05,18,10,31,18.00
2008,05,18,10,32,18.10
2008,05,18,10,33,18.10
2008,05,18,10,34,18.10
2008,05,18,10,35,18.20
2008,05,18,10,36,18.10
2008,05,18,10,37,18.10
2008,05,18,10,38,17.90
2008,05,18,10,39,17.90
2008,05,18,10,40,17.80
2008,05,18,10,41,17.70
2008,05,18,10,42,17.70
2008,05,18,10,43,17.70
2008,05,18,10,44,17.70
2008,05,18,10,45,17.80
2008,05,18,10,46,17.80
2008,05,18,10,47,17.70
2008,05,18,10,48,17.50
2008,05,18,10,49,17.50
2008,05,18,10,50,17.50
2008,05,18,10,51,17.50
2008,05,18,10,52,17.40
2008,05,18,10,53,17.30
2008,05,18,10,54,17.20
2008,05,18,10,55,17.20
2008,05,18,10,56,17.10
2008,05,18,10,57,17.10
2008,05,18,10,58,17.00
2008,05,18,10,59,16.80
2008,05,18,11,00,16.60
2008,05,18,11,01,16.50
2008,05,18,11,02,16.30
2008,05,18,11,03,16.30
2008,05,18,11,04,16.30
2008,05,18,11,05,16.20
2008,05,18,11,06,16.20
2008,05,18,11,07,16.00
2008,05,18,11,08,15.90
2008,05,18,11,09,15.80
2008,05,18,11,10,15.90
2008,05,18,11,11,16.00
2008,05,18,11,12,16.10
2008,05,18,11,13,16.20
2008,05,18,11,14,16.30
2008,05,18,11,15,16.30
2008,05,18,11,16,16.30
2008,05,18,11,17,16.40
2008,05,18,11,18,16.40
2008,05,18,11,19,16.40
2008,05,18,11,20,16.50
2008,05,18,11,21,16.70
2008,05,18,11,22,16.80
2008,05,18,11,23,16.90
2008,05,18,11,24,17.10
2008,05,18,11,25,17.20
2008,05,18,11,26,17.30
2008,05,18,11,27,17.30
2008,05,18,11,28,17.30
2008,05,18,11,29,17.30
2008,05,18,11,30,17.30
2008,05,18,11,31,17.30
2008,05,18,11,32,17.40
2008,05,18,11,33,17.50
2008,05,18,11,34,17.60
2008,05,18,11,35,17.70
2008,05,18,11,36,17.80
2008,05,18,11,37,17.90
2008,05,18,11,38,17.90
2008,05,18,11,39,18.00
2008,05,18,11,40,18.10
2008,05,18,11,41,18.20
2008,05,18,11,42,18.20
2008,05,18,11,43,18.20
2008,05,18,11,44,18.20
2008,05,18,11,45,18.20
2008,05,18,11,46,18.20
2008,05,18,11,47,18.20
2008,05,18,11,48,18.20
2008,05,18,11,49,18.20
2008,05,18,11,50,18.30
2008,05,18,11,51,18.30
2008,05,18,11,52,18.40
2008,05,18,11,53,18.40
2008,05,18,11,54,18.40
2008,05,18,11,55,18.40
2008,05,18,11,56,18.20
2008,05,18,11,57,18.10
2008,05,18,11,58,18.00
2008,05,18,11,59,17.90
2008,05,18,12,00,17.90
2008,05,18,12,01,17.90
2008,05,18,12,02,17.90
2008,05,18,12,03,17.90
2008,05,18,12,04,17.90
2008,05,18,12,05,17.90
2008,05,18,12,06,18.00
2008,05,18,12,07,18.10
2008,05,18,12,08,17.90
2008,05,18,12,09,17.80
2008,05,18,12,10,17.70
2008,05,18,12,11,17.50
2008,05,18,12,12,17.40
2008,05,18,12,13,17.10
2008,05,18,12,14,17.00
2008,05,18,12,15,16.80
2008,05,18,12,16,16.70
2008,05,18,12,17,16.70
2008,05,18,12,18,16.50
2008,05,18,12,19,16.30
2008,05,18,12,20,16.10
2008,05,18,12,21,15.90
2008,05,18,12,22,15.90
2008,05,18,12,23,15.80
2008,05,18,12,24,15.70
2008,05,18,12,25,15.60
2008,05,18,12,26,15.50
2008,05,18,12,27,15.40
2008,05,18,12,28,15.30
2008,05,18,12,29,15.40
2008,05,18,12,30,15.50
2008,05,18,12,31,15.50
2008,05,18,12,32,15.50
2008,05,18,12,33,15.50
2008,05,18,12,34,15.50
2008,05,18,12,35,15.50
2008,05,18,12,36,15.60
2008,05,18,12,37,15.60
2008,05,18,12,38,15.50
2008,05,18,12,39,15.50
2008,05,18,12,40,15.50
2008,05,18,12,41,15.50
2008,05,18,12,42,15.50
2008,05,18,12,43,15.50
2008,05,18,12,44,15.40
2008,05,18,12,45,15.40
2008,05,18,12,46,15.40
2008,05,18,12,47,15.30
2008,05,18,12,48,15.30
2008,05,18,12,49,15.30
2008,05,18,12,50,15.40
2008,05,18,12,51,15.40
2008,05,18,12,52,15.50
2008,05,18,12,53,15.50
2008,05,18,12,54,15.60
2008,05,18,12,55,15.60
2008,05,18,12,56,15.60
2008,05,18,12,57,15.60
2008,05,18,12,58,15.70
2008,05,18,12,59,15.80
2008,05,18,13,00,15.70
2008,05,18,13,01,15.80
2008,05,18,13,02,15.80
2008,05,18,13,03,15.80
2008,05,18,13,04,15.90
2008,05,18,13,05,16.00
2008,05,18,13,06,16.10
2008,05,18,13,07,16.20
2008,05,18,13,08,16.10
2008,05,18,13,09,16.20
2008,05,18,13,10,16.20
2008,05,18,13,11,16.30
2008,05,18,13,12,16.40
2008,05,18,13,13,16.40
2008,05,18,13,14,16.50
2008,05,18,13,15,16.60
2008,05,18,13,16,16.60
2008,05,18,13,17,16.70
2008,05,18,13,18,16.80
2008,05,18,13,19,17.00
2008,05,18,13,20,17.20
2008,05,18,13,21,17.30
2008,05,18,13,22,17.30
2008,05,18,13,23,17.30
2008,05,18,13,24,17.30
2008,05,18,13,25,17.30
2008,05,18,13,26,17.20
2008,05,18,13,27,17.10
2008,05,18,13,28,17.00
2008,05,18,13,29,17.00
2008,05,18,13,30,17.10
2008,05,18,13,31,17.10
2008,05,18,13,32,17.10
2008,05,18,13,33,17.20
2008,05,18,13,34,17.30
2008,05,18,13,35,17.30
2008,05,18,13,36,17.30
2008,05,18,13,37,17.40
2008,05,18,13,38,17.50
2008,05,18,13,39,17.60
2008,05,18,13,40,17.70
2008,05,18,13,41,17.70
2008,05,18,13,42,17.90
2008,05,18,13,43,17.90
2008,05,18,13,44,17.90
2008,05,18,13,45,17.90
2008,05,18,13,46,17.90
2008,05,18,13,47,17.70
2008,05,18,13,48,17.60
2008,05,18,13,49,17.50
2008,05,18,13,50,17.40
2008,05,18,13,51,17.40
2008,05,18,13,52,17.40
2008,05,18,13,53,17.30
2008,05,18,13,54,17.30
2008,05,18,13,55,17.40
2008,05,18,13,56,17.50
2008,05,18,13,57,17.60
2008,05,18,13,58,17.60
2008,05,18,13,59,17.60
2008,05,18,14,00,17.60
2008,05,18,14,01,17.60
2008,05,18,14,02,17.60
2008,05,18,14,03,17.70
2008,05,18,14,04,17.80
2008,05,18,14,05,17.90
2008,05,18,14,06,17.90
2008,05,18,14,07,17.80
2008,05,18,14,08,17.80
2008,05,18,14,09,17.80
2008,05,18,14,10,17.70
2008,05,18,14,11,17.70
2008,05,18,14,12,17.80
2008,05,18,14,13,17.80
2008,05,18,14,14,17.80
2008,05,18,14,15,17.80
2008,05,18,14,16,17.70
2008,05,18,14,17,17.70
2008,05,18,14,18,17.60
2008,05,18,14,19,17.70
2008,05,18,14,20,17.60
2008,05,18,14,21,17.50
2008,05,18,14,22,17.40
2008,05,18,14,23,17.40
2008,05,18,14,24,17.40
2008,05,18,14,25,17.40
2008,05,18,14,26,17.40
2008,05,18,14,27,17.50
2008,05,18,14,28,17.50
2008,05,18,14,29,17.70
2008,05,18,14,30,17.80
2008,05,18,14,31,17.80
2008,05,18,14,32,17.90
2008,05,18,14,33,18.00
2008,05,18,14,34,18.10
2008,05,18,14,35,18.00
2008,05,18,14,36,17.90
2008,05,18,14,37,17.90
2008,05,18,14,38,17.90
2008,05,18,14,39,17.90
2008,05,18,14,40,17.90
2008,05,18,14,41,18.10
2008,05,18,14,42,18.10
2008,05,18,14,43,18.20
2008,05,18,14,44,18.20
2008,05,18,14,45,18.30
2008,05,18,14,46,18.40
2008,05,18,14,47,18.40
2008,05,18,14,48,18.50
2008,05,18,14,49,18.60
2008,05,18,14,50,18.60
2008,05,18,14,51,18.80
2008,05,18,14,52,18.80
2008,05,18,14,53,18.90
2008,05,18,14,54,18.90
2008,05,18,14,55,18.90
2008,05,18,14,56,18.90
2008,05,18,14,57,18.90
2008,05,18,14,58,18.90
2008,05,18,14,59,19.10
2008,05,18,15,00,18.90
2008,05,18,15,01,18.90
2008,05,18,15,02,19.00
2008,05,18,15,03,19.10
2008,05,18,15,04,19.20
2008,05,18,15,05,19.30
2008,05,18,15,06,19.40
2008,05,18,15,07,19.40
2008,05,18,15,08,19.30
2008,05,18,15,09,19.30
2008,05,18,15,10,19.20
2008,05,18,15,11,19.20
2008,05,18,15,12,19.10
2008,05,18,15,13,19.10
2008,05,18,15,14,19.20
2008,05,18,15,15,19.30
2008,05,18,15,16,19.30
2008,05,18,15,17,19.40
2008,05,18,15,18,19.40
2008,05,18,15,19,19.50
2008,05,18,15,20,19.50
2008,05,18,15,21,19.60
2008,05,18,15,22,19.60
2008,05,18,15,23,19.70
2008,05,18,15,24,19.80
2008,05,18,15,25,19.80
2008,05,18,15,26,19.70
2008,05,18,15,27,19.60
2008,05,18,15,28,19.50
2008,05,18,15,29,19.40
2008,05,18,15,30,19.30
2008,05,18,15,31,19.20
2008,05,18,15,32,19.10
2008,05,18,15,33,19.10
2008,05,18,15,34,19.00
2008,05,18,15,35,18.90
2008,05,18,15,36,19.00
2008,05,18,15,37,19.10
2008,05,18,15,38,19.10
2008,05,18,15,39,19.20
2008,05,18,15,40,19.30
2008,05,18,15,41,19.30
2008,05,18,15,42,19.30
2008,05,18,15,43,19.20
2008,05,18,15,44,19.20
2008,05,18,15,45,19.10
2008,05,18,15,46,19.10
2008,05,18,15,47,19.10
2008,05,18,15,48,19.00
2008,05,18,15,49,18.90
2008,05,18,15,50,18.90
2008,05,18,15,51,18.90
2008,05,18,15,52,18.90
2008,05,18,15,53,18.90
2008,05,18,15,54,18.90
2008,05,18,15,55,18.90
2008,05,18,15,56,18.90
2008,05,18,15,57,18.90
2008,05,18,15,58,18.90
2008,05,18,15,59,19.00
2008,05,18,16,00,19.10
2008,05,18,16,01,19.10
2008,05,18,16,02,19.10
2008,05,18,16,03,19.10
2008,05,18,16,04,19.10
2008,05,18,16,05,19.20
2008,05,18,16,06,19.30
2008,05,18,16,07,19.40
2008,05,18,16,08,19.60
2008,05,18,16,09,19.70
2008,05,18,16,10,19.90
2008,05,18,16,11,20.00
2008,05,18,16,12,20.20
2008,05,18,16,13,20.20
2008,05,18,16,14,20.30
2008,05,18,16,15,20.30
2008,05,18,16,16,20.30
2008,05,18,16,17,20.40
2008,05,18,16,18,20.50
2008,05,18,16,19,20.60
2008,05,18,16,20,20.70
2008,05,18,16,21,20.80
2008,05,18,16,22,20.80
2008,05,18,16,23,20.90
2008,05,18,16,24,20.90
2008,05,18,16,25,20.90
2008,05,18,16,26,20.90
2008,05,18,16,27,21.00
2008,05,18,16,28,21.20
2008,05,18,16,29,21.30
2008,05,18,16,30,21.40
2008,05,18,16,31,21.40
2008,05,18,16,32,21.60
2008,05,18,16,33,21.60
2008,05,18,16,34,21.70
2008,05,18,16,35,21.70
2008,05,18,16,36,21.80
2008,05,18,16,37,21.90
2008,05,18,16,38,22.10
2008,05,18,16,39,22.20
2008,05,18,16,40,22.40
2008,05,18,16,41,22.70
2008,05,18,16,42,22.90
2008,05,18,16,43,22.90
2008,05,18,16,44,23.00
2008,05,18,16,45,23.20
2008,05,18,16,46,23.10
2008,05,18,16,47,23.10
2008,05,18,16,48,23.20
2008,05,18,16,49,23.20
2008,05,18,16,50,23.20
2008,05,18,16,51,23.20
2008,05,18,16,52,23.30
2008,05,18,16,53,23.30
2008,05,18,16,54,23.30
2008,05,18,16,55,23.30
2008,05,18,16,56,23.30
2008,05,18,16,57,23.30
2008,05,18,16,58,23.40
2008,05,18,16,59,23.30
2008,05,18,17,00,23.30
2008,05,18,17,01,23.30
2008,05,18,17,02,23.30
2008,05,18,17,03,23.30
2008,05,18,17,04,23.30
2008,05,18,17,05,23.30
2008,05,18,17,06,23.30
2008,05,18,17,07,23.50
2008,05,18,17,08,23.60
2008,05,18,17,09,23.60
2008,05,18,17,10,23.60
2008,05,18,17,11,23.60
2008,05,18,17,12,23.60
2008,05,18,17,13,23.60
2008,05,18,17,14,23.70
2008,05,18,17,15,23.70
2008,05,18,17,16,23.60
2008,05,18,17,17,23.40
2008,05,18,17,18,23.40
2008,05,18,17,19,23.30